Watsonville, CA

11:27 AM PDT on August 23, 2017 (GMT -0700)
Watsonville Municipal

Weather History for KWVI - September, 2011

Change the Weather History Date:

Thursday, September 29, 2011

  Actual Average Record
Temperature  
Mean Temperature 61 °F 62 °F  
Max Temperature 67 °F 74 °F 90 °F (2005)
Min Temperature 55 °F 50 °F 45 °F (2002)
Degree Days  
Heating Degree Days 4    
Month to date heating degree days 62  
Since 1 July heating degree days 210  
Cooling Degree Days 0    
Month to date cooling degree days 34  
Year to date cooling degree days 69  
Growing Degree Days 10 (Base 50)    
Moisture  
Dew Point 56 °F    
Average Humidity 87    
Maximum Humidity 100    
Minimum Humidity 73    
Precipitation  
Precipitation 0.00 in - 0.68 in (1976)
Month to date precipitation 0.03  
Year to date precipitation 18.34  
Since 1 July precipitation 0.16  
Sea Level Pressure  
Sea Level Pressure 29.95 in    
Wind  
Wind Speed 6 mph (WSW)    
Max Wind Speed 20 mph    
Max Gust Speed 28 mph    
Visibility 6 miles    
Events Fog    
T = Trace of Precipitation, MM = Missing Value Source: NWS Daily Summary

Daily Weather History Graph

Daily Weather History Graph

Search for Another Location

Airport or City:

Trip Planner

Search our weather history database for the weather conditions in past years. The results will help you decide how hot, cold, wet, or windy it might be!

Date:

Astronomy

Sep. 29, 2011 Rise Set
Actual Time 7:00 AM PDT 6:53 PM PDT
Civil Twilight 6:34 AM PDT 7:19 PM PDT
Nautical Twilight 6:04 AM PDT 7:49 PM PDT
Astronomical Twilight 5:34 AM PDT 8:19 PM PDT
Moon 9:46 AM PDT (9/29) 8:17 PM PDT (9/29)
Length of Visible Light 12h 44m
Length of Day
11h 53m
Waxing Crescent, 8% of the Moon is Illuminated
Sep 29
Waxing Crescent
Oct 3
First Quarter
Oct 11
Full
Oct 19
Last Quarter
Oct 26
New

Hourly Weather History & Observations

Time (PDT) Temp. Dew Point Humidity Pressure Visibility Wind Dir Wind Speed Gust Speed Precip Events Conditions
1:16 AM 55.4 °F 53.6 °F 94% 29.94 in 8.0 mi Calm Calm - N/A   Scattered Clouds
1:25 AM 55.4 °F 53.6 °F 94% 29.94 in 3.0 mi Calm Calm - N/A   Mostly Cloudy
1:28 AM 55.4 °F 53.6 °F 94% 29.94 in 1.8 mi Calm Calm - N/A   Mostly Cloudy
1:31 AM 55.4 °F 53.6 °F 94% 29.94 in 0.8 mi Calm Calm - N/A   Mostly Cloudy
1:45 AM 57.2 °F 55.4 °F 94% 29.94 in 0.2 mi Calm Calm - N/A Fog Fog
1:53 AM 57.0 °F 55.0 °F 93% 29.94 in 0.2 mi West 4.6 mph - N/A Fog Fog
2:00 AM 57.2 °F 55.4 °F 94% 29.95 in 0.5 mi Calm Calm - N/A Fog Fog
2:53 AM 55.9 °F 55.0 °F 97% 29.94 in 0.8 mi SW 4.6 mph - N/A   Mist
3:53 AM 57.0 °F 55.0 °F 93% 29.94 in 0.5 mi Calm Calm - N/A Fog Fog
4:12 AM 57.2 °F 55.4 °F 94% 29.93 in 1.2 mi WNW 3.5 mph - N/A   Overcast
4:53 AM 57.0 °F 55.0 °F 93% 29.94 in 1.2 mi Calm Calm - N/A   Overcast
5:53 AM 57.0 °F 55.0 °F 93% 29.94 in 1.5 mi Calm Calm - N/A   Overcast
6:09 AM 57.2 °F 55.4 °F 94% 29.94 in 2.0 mi Variable 3.5 mph - N/A   Overcast
6:53 AM 57.0 °F 55.9 °F 96% 29.96 in 4.0 mi WNW 4.6 mph - N/A   Overcast
7:53 AM 57.9 °F 55.9 °F 93% 29.97 in 4.0 mi West 6.9 mph - N/A   Overcast
8:53 AM 59.0 °F 57.0 °F 93% 29.97 in 6.0 mi West 6.9 mph - N/A   Overcast
10:14 AM 60.8 °F 57.2 °F 88% 29.97 in 10.0 mi West 5.8 mph - N/A   Overcast
10:53 AM 62.1 °F 55.9 °F 80% 29.97 in 10.0 mi West 10.4 mph - N/A   Overcast
11:53 AM 64.0 °F 55.9 °F 75% 29.98 in 10.0 mi WSW 11.5 mph 18.4 mph N/A   Overcast
1:18 PM 66.2 °F 57.2 °F 73% 29.98 in 10.0 mi WSW 8.1 mph - N/A   Overcast
1:53 PM 64.9 °F 57.0 °F 75% 29.97 in 10.0 mi WSW 9.2 mph - N/A   Overcast
2:53 PM 64.0 °F 57.9 °F 80% 29.97 in 9.0 mi West 8.1 mph - N/A   Overcast
3:02 PM 64.4 °F 57.2 °F 77% 29.97 in 10.0 mi West 6.9 mph - N/A   Overcast
3:45 PM 64.4 °F 57.2 °F 77% 29.96 in 10.0 mi WSW 8.1 mph - N/A   Overcast
3:53 PM 64.0 °F 57.9 °F 80% 29.96 in 10.0 mi WSW 8.1 mph - N/A   Overcast
4:08 PM 64.4 °F 57.2 °F 77% 29.96 in 10.0 mi SW 8.1 mph - N/A   Overcast
4:53 PM 63.0 °F 57.9 °F 84% 29.95 in 10.0 mi WSW 6.9 mph - N/A   Overcast
5:53 PM 63.0 °F 57.9 °F 84% 29.94 in 8.0 mi WSW 5.8 mph - N/A   Overcast
6:53 PM 62.1 °F 57.9 °F 86% 29.94 in 9.0 mi WSW 5.8 mph - N/A   Overcast
7:53 PM 62.1 °F 57.9 °F 86% 29.94 in 10.0 mi Calm Calm - N/A   Overcast
8:01 PM 62.6 °F 57.2 °F 82% 29.94 in 10.0 mi North - - N/A   Overcast
8:53 PM 62.1 °F 57.0 °F 84% 29.95 in 10.0 mi SW 3.5 mph - N/A   Overcast
9:53 PM 62.1 °F 57.0 °F 84% 29.96 in 10.0 mi WSW 5.8 mph - N/A   Overcast
10:53 PM 62.1 °F 57.0 °F 84% 29.97 in 10.0 mi WSW 4.6 mph - N/A   Overcast
11:53 PM 62.1 °F 55.9 °F 80% 29.97 in 10.0 mi West 3.5 mph - N/A   Overcast